Location: Unspecified
(0.0000°N, 0.0000°E)
Time: 14:39:32
(UTC+00:00)

OV1-9P - Visible Passes

Search period start: 13 November 2025 00:00
Search period end: 23 November 2025 00:00
Orbit: 475 x 4393 km, 99.1° (Epoch: 12 November)

Date Brightness Start Highest point End Pass type
(mag) Time Alt. Az. Time Alt. Az. Time Alt. Az.
13 Nov 11.7 03:28:47 10° E 03:35:17 12° ESE 03:42:03 10° SE visible
13 Nov 6.2 18:23:09 10° S 18:29:18 70° WSW 18:32:59 10° NNW visible
14 Nov 11.0 04:24:40 10° NE 04:40:48 35° ESE 05:00:32 10° SSE visible
15 Nov 11.6 03:28:48 10° E 03:37:49 14° ESE 03:47:16 10° SE visible
15 Nov 6.5 18:25:42 10° S 18:31:24 58° WSW 18:34:57 10° NNW visible
16 Nov 10.9 04:26:39 10° NE 04:43:29 38° ESE 05:03:54 10° S visible
17 Nov 11.6 03:29:29 10° E 03:40:21 16° ESE 03:51:47 10° SE visible
17 Nov 6.9 18:28:14 10° S 18:33:27 47° WSW 18:36:53 10° NNW visible
18 Nov 10.8 04:28:39 10° NE 04:46:11 41° ESE 05:07:08 10° S visible
19 Nov 11.5 03:30:31 10° ENE 03:42:54 18° ESE 03:55:53 10° SSE visible
19 Nov 7.2 18:30:44 10° S 18:35:28 38° WSW 18:38:44 10° NW visible
20 Nov 10.7 04:30:42 10° NE 04:48:53 44° ESE 05:10:18 10° S visible
21 Nov 11.4 03:31:47 10° ENE 03:45:27 20° ESE 03:59:43 10° SSE visible
21 Nov 7.6 18:33:13 10° S 18:37:28 31° WSW 18:40:32 10° NW visible
22 Nov 10.7 04:32:47 10° NE 04:51:36 47° ESE 05:13:22 10° S visible
